Tracking 35331 objects as of 17-Sep-2026
HD Live streaming from Space Station
objects crossing your sky now

OBJECT H

Track OBJECT H now!
10-day predictions


NORAD ID: 68799
Int'l Code: 2026-088H
Launch date: April 23, 2026
Source: Japan (JPN)
Launch site: Rocket Lab Launch Complex (RLLC)

Note: This is a ROCKET BODY
Your satellite tracking list
Your tracking list is empty




NASA's NSSDC Master Catalog

Two Line Element Set (TLE):
1 68799U 26088H   26258.65535781  .00002972  00000-0  18920-3 0  9999
2 68799  97.5186  46.1555 0020037 128.2678 232.0358 15.09379618 21947
Source of the keplerian elements: AFSPC